ZHONGXING-2E

Last updated on Mon Oct 20 2025 00:02:50 GMT+0000 (Coordinated Universal Time)

1 49062U 21071A 25292.28664398 -.00000294 00000+0 00000+0 0 9992 2 49062 0.0342 38.6373 0001406 216.4205 334.2539 1.00272956 15628
UTC large
Height (km)
Speed (km/s)
/
Latitude / Longitude
Inclination (degrees)
Orbital Period (minutes)
Azimuth
Elevation
Range (km)
Doppler Factor

Next 0 passes for location: London (51.5072 / 0.1276)

Sorry there are no passes over London.